TimeMST,TemperatureF,Dew PointF,Humidity,Sea Level PressureIn,VisibilityMPH,Wind Direction,Wind SpeedMPH,Gust SpeedMPH,PrecipitationIn,Events,Conditions,WindDirDegrees,DateUTC
12:54 AM,17.1,7.0,65,30.17,10.0,Calm,Calm,-,N/A,,Clear,0,2013-02-27 07:54:00
1:54 AM,18.0,7.0,62,30.17,10.0,Variable,3.5,-,N/A,,Clear,0,2013-02-27 08:54:00
2:54 AM,14.0,7.0,74,30.19,10.0,South,3.5,-,N/A,,Clear,180,2013-02-27 09:54:00
3:54 AM,18.0,7.0,62,30.18,10.0,South,6.9,-,N/A,,Clear,180,2013-02-27 10:54:00
4:54 AM,17.6,6.8,63,30.18,10.0,South,6.9,-,N/A,,Clear,170,2013-02-27 11:54:00
5:54 AM,16.0,6.1,65,30.24,10.0,SSE,4.6,-,N/A,,Clear,150,2013-02-27 12:54:00
6:54 AM,16.0,5.0,62,30.28,10.0,SSE,4.6,-,N/A,,Clear,150,2013-02-27 13:54:00
7:54 AM,19.9,7.0,57,30.32,10.0,SSE,3.5,-,N/A,,Clear,150,2013-02-27 14:54:00
8:54 AM,25.0,8.1,49,30.32,10.0,Calm,Calm,-,N/A,,Clear,0,2013-02-27 15:54:00
9:54 AM,28.9,9.0,43,30.32,10.0,Calm,Calm,-,N/A,,Clear,0,2013-02-27 16:54:00
10:54 AM,34.0,9.0,35,30.31,10.0,SSE,3.5,-,N/A,,Clear,150,2013-02-27 17:54:00
11:54 AM,37.0,6.1,28,30.28,10.0,Calm,Calm,-,N/A,,Clear,0,2013-02-27 18:54:00
12:54 PM,39.9,1.9,20,30.25,10.0,North,3.5,-,N/A,,Clear,10,2013-02-27 19:54:00
1:54 PM,41.0,1.0,19,30.22,10.0,NNW,4.6,-,N/A,,Clear,340,2013-02-27 20:54:00
2:54 PM,41.0,-4.0,15,30.22,10.0,Variable,4.6,-,N/A,,Clear,0,2013-02-27 21:54:00
3:54 PM,43.0,-0.9,16,30.20,10.0,NNE,5.8,-,N/A,,Clear,30,2013-02-27 22:54:00
4:54 PM,42.1,1.0,18,30.20,10.0,North,6.9,-,N/A,,Clear,350,2013-02-27 23:54:00
5:54 PM,39.0,3.9,23,30.23,10.0,WNW,5.8,-,N/A,,Clear,300,2013-02-28 00:54:00
6:54 PM,30.2,5.0,34,30.21,10.0,West,4.6,-,N/A,,Clear,270,2013-02-28 01:54:00
7:54 PM,28.9,7.0,40,30.29,10.0,WSW,3.5,-,N/A,,Clear,240,2013-02-28 02:54:00
8:54 PM,26.1,6.1,43,30.30,10.0,West,4.6,-,N/A,,Clear,270,2013-02-28 03:54:00
9:54 PM,25.0,8.1,49,30.31,10.0,Calm,Calm,-,N/A,,Clear,0,2013-02-28 04:54:00
10:54 PM,24.8,6.8,46,30.27,7.0,SSW,3.5,-,N/A,,Clear,210,2013-02-28 05:54:00
11:54 PM,24.1,8.1,51,30.29,10.0,South,3.5,-,N/A,,Clear,170,2013-02-28 06:54:00